sat.trackr.live / text

‹ back to catalog

STARLINK-37059

NORAD 68088 · 2026-042V

PAYLOAD ACTIVE UNKNOWN

§ Identity

Operator
Country
US
Launch date
2026-03-04
Launch site
AFETR
Launch vehicle
Mass (kg)
RCS (m²)

Purposes: comms

External: N2YO · Heavens-Above · Gunter

§ Orbital elements

Epoch: 2026-09-19T19:39:23.360832Z

Period
93.85 min
Inclination
53.1591°
Eccentricity
0.0000948
Mean motion
15.34400438 rev/d
Perigee alt
462.1 km
Apogee alt
463.4 km
Semi-major
6,840.8 km
B*
3.9335e-4
RAAN
353.0180°
Arg perigee
65.5861°
Mean anomaly
294.5241°
Rev number
3,208

§ Raw data

STARLINK-370591 68088U 26042V   26262.81902038  .00012937  00000+0  39335-3 0  99902 68088  53.1591 353.0180 0000948  65.5861 294.5241 15.34400438 32080

JSON: /api/v1/satellites/68088 · /tle

For live sub-satellite position, see the globe view (requires WebGL).

§ Visibility from observer

Set your observer location to see the next 7 days of passes ≥ 10°. The values pass through the URL so the page stays shareable.

No JS? Fill the form by hand. The geolocation button needs JavaScript.